| time (UTC) | temp C | wind direction | speed KPH | gust KPH | rain 1hr cm | rain 24hr cm | rain mn cm | humidity % | barometer mb |
| 20260508023336 | 13 | 270 | 16.1 | 0.0 | 0.00 | 0.00 | 0.00 | 94 | 1015.0 |
| 20260508021836 | 13 | 250 | 4.8 | 0.0 | 0.00 | 0.00 | 0.00 | 94 | 1015.0 |
| 20260508020335 | 13 | 250 | 4.8 | 0.0 | 0.00 | 0.00 | 0.00 | 94 | 1015.0 |
| 20260508014832 | 13 | 0 | 0.0 | 0.0 | 0.00 | 0.00 | 0.00 | 94 | 1015.0 |
| 20260508013336 | 13 | 0 | 0.0 | 0.0 | 0.00 | 0.00 | 0.00 | 94 | 1015.0 |
| 20260508011835 | 13 | 0 | 0.0 | 0.0 | 0.00 | 0.00 | 0.00 | 94 | 1015.0 |
| 20260508010335 | 13 | 0 | 0.0 | 0.0 | 0.00 | 0.00 | 0.00 | 94 | 1015.0 |
| 20260508004836 | 13 | 0 | 0.0 | 0.0 | 0.00 | 0.00 | 0.00 | 94 | 1015.0 |
| 20260508003335 | 13 | 0 | 0.0 | 0.0 | 0.00 | 0.00 | 0.00 | 94 | 1015.0 |
| 20260508001831 | 13 | 0 | 0.0 | 0.0 | 0.00 | 0.00 | 0.00 | 100 | 1015.0 |
| 20260508000335 | 13 | 0 | 0.0 | 0.0 | 0.00 | 0.00 | 0.00 | 100 | 1015.0 |
| 20260507234833 | 13 | 0 | 0.0 | 0.0 | 0.00 | 0.00 | 0.00 | 100 | 1015.0 |
| 20260507233335 | 13 | 0 | 0.0 | 0.0 | 0.00 | 0.00 | 0.00 | 100 | 1015.0 |
| 20260507231835 | 13 | 0 | 0.0 | 0.0 | 0.00 | 0.00 | 0.00 | 100 | 1015.0 |
| 20260507230335 | 13 | 0 | 0.0 | 0.0 | 0.00 | 0.00 | 0.00 | 100 | 1015.0 |
| 20260507224835 | 13 | 0 | 0.0 | 0.0 | 0.00 | 0.00 | 0.00 | 100 | 1015.0 |
| 20260507223455 | 13 | 0 | 0.0 | 0.0 | 0.00 | 0.00 | 0.00 | 100 | 1015.0 |
| 20260507221832 | 13 | 0 | 0.0 | 0.0 | 0.00 | 0.00 | 0.00 | 100 | 1015.0 |
| 20260507220335 | 13 | 0 | 0.0 | 0.0 | 0.00 | 0.00 | 0.00 | 100 | 1015.0 |
| 20260507214835 | 15 | 0 | 0.0 | 0.0 | 0.00 | 0.00 | 0.00 | 94 | 1015.0 |
| 20260507213337 | 15 | 0 | 0.0 | 0.0 | 0.00 | 0.00 | 0.00 | 94 | 1015.0 |
| 20260507211835 | 15 | 0 | 0.0 | 0.0 | 0.00 | 0.00 | 0.00 | 94 | 1015.0 |
| 20260507210336 | 15 | 0 | 0.0 | 0.0 | 0.00 | 0.00 | 0.00 | 94 | 1015.0 |
| 20260507204835 | 15 | 0 | 0.0 | 0.0 | 0.00 | 0.00 | 0.00 | 94 | 1015.0 |
| 20260507203336 | 15 | 0 | 0.0 | 0.0 | 0.00 | 0.00 | 0.00 | 94 | 1015.0 |
| 20260507201835 | 15 | 0 | 0.0 | 0.0 | 0.00 | 0.00 | 0.00 | 94 | 1015.0 |
| 20260507200336 | 15 | 0 | 0.0 | 0.0 | 0.00 | 0.00 | 0.00 | 94 | 1015.0 |
| 20260507194841 | 15 | 0 | 0.0 | 0.0 | 0.00 | 0.00 | 0.00 | 94 | 1015.0 |
| 20260507193335 | 15 | 0 | 0.0 | 0.0 | 0.00 | 0.00 | 0.00 | 94 | 1015.0 |
| 20260507191835 | 15 | 0 | 0.0 | 0.0 | 0.00 | 0.00 | 0.00 | 88 | 1015.0 |
| 20260507190336 | 15 | 0 | 0.0 | 0.0 | 0.00 | 0.00 | 0.00 | 88 | 1015.0 |
| 20260507184837 | 16 | 0 | 0.0 | 0.0 | 0.00 | 0.00 | 0.00 | 83 | 1014.0 |
| 20260507183335 | 16 | 0 | 0.0 | 0.0 | 0.00 | 0.00 | 0.00 | 83 | 1014.0 |
| 20260507181835 | 16 | 3.2 | 0.0 | 0.00 | 0.00 | 0.00 | 83 | 1014.0 | |
| 20260507180335 | 16 | 3.2 | 0.0 | 0.00 | 0.00 | 0.00 | 83 | 1014.0 | |
| 20260507174835 | 17 | 260 | 3.2 | 0.0 | 0.00 | 0.00 | 0.00 | 77 | 1014.0 |
| 20260507173336 | 17 | 260 | 3.2 | 0.0 | 0.00 | 0.00 | 0.00 | 77 | 1014.0 |
| 20260507171836 | 17 | 290 | 4.8 | 0.0 | 0.00 | 0.00 | 0.00 | 77 | 1014.0 |
| 20260507170335 | 17 | 290 | 4.8 | 0.0 | 0.00 | 0.00 | 0.00 | 77 | 1014.0 |
| 20260507164836 | 17 | 270 | 9.7 | 0.0 | 0.00 | 0.00 | 0.00 | 77 | 1014.0 |
| 20260507163336 | 17 | 270 | 9.7 | 0.0 | 0.00 | 0.00 | 0.00 | 77 | 1014.0 |
| 20260507161835 | 17 | 270 | 11.3 | 0.0 | 0.00 | 0.00 | 0.00 | 77 | 1014.0 |
| 20260507160335 | 17 | 270 | 11.3 | 0.0 | 0.00 | 0.00 | 0.00 | 77 | 1014.0 |
| 20260507154835 | 17 | 280 | 9.7 | 0.0 | 0.00 | 0.00 | 0.00 | 73 | 1014.0 |
| 20260507153335 | 17 | 280 | 9.7 | 0.0 | 0.00 | 0.00 | 0.00 | 73 | 1014.0 |
| 20260507151835 | 17 | 280 | 11.3 | 0.0 | 0.00 | 0.00 | 0.00 | 73 | 1014.0 |
| 20260507150335 | 17 | 280 | 11.3 | 0.0 | 0.00 | 0.00 | 0.00 | 73 | 1014.0 |
| 20260507144835 | 17 | 280 | 11.3 | 0.0 | 0.00 | 0.00 | 0.00 | 73 | 1014.0 |
| 20260507143337 | 17 | 280 | 11.3 | 0.0 | 0.00 | 0.00 | 0.00 | 73 | 1014.0 |
| 20260507141835 | 18 | 270 | 14.5 | 0.0 | 0.00 | 0.00 | 0.00 | 68 | 1014.0 |
| 20260507140335 | 18 | 270 | 14.5 | 0.0 | 0.00 | 0.00 | 0.00 | 68 | 1014.0 |
| 20260507134836 | 21 | 270 | 12.9 | 0.0 | 0.00 | 0.00 | 0.00 | 57 | 1014.0 |
| 20260507133335 | 21 | 270 | 12.9 | 0.0 | 0.00 | 0.00 | 0.00 | 57 | 1014.0 |
| 20260507131832 | 21 | 290 | 9.7 | 0.0 | 0.00 | 0.00 | 0.00 | 53 | 1014.0 |
| 20260507130335 | 21 | 290 | 9.7 | 0.0 | 0.00 | 0.00 | 0.00 | 53 | 1014.0 |
| 20260507124832 | 21 | 4.8 | 0.0 | 0.00 | 0.00 | 0.00 | 50 | 1014.0 | |
| 20260507123413 | 21 | 4.8 | 0.0 | 0.00 | 0.00 | 0.00 | 50 | 1014.0 | |
| 20260507121835 | 21 | 200 | 8.0 | 0.0 | 0.00 | 0.00 | 0.00 | 53 | 1015.0 |
| 20260507120335 | 21 | 200 | 8.0 | 0.0 | 0.00 | 0.00 | 0.00 | 53 | 1015.0 |
| 20260507114835 | 21 | 1.6 | 0.0 | 0.00 | 0.00 | 0.00 | 57 | 1015.0 | |
| 20260507113355 | 20 | 160 | 3.2 | 0.0 | 0.00 | 0.00 | 0.00 | 60 | 1015.0 |
| 20260507111836 | 20 | 160 | 3.2 | 0.0 | 0.00 | 0.00 | 0.00 | 60 | 1015.0 |
| 20260507110335 | 20 | 160 | 3.2 | 0.0 | 0.00 | 0.00 | 0.00 | 60 | 1015.0 |
| 20260507104835 | 20 | 120 | 4.8 | 0.0 | 0.00 | 0.00 | 0.00 | 60 | 1014.0 |
| 20260507103335 | 20 | 120 | 4.8 | 0.0 | 0.00 | 0.00 | 0.00 | 60 | 1014.0 |
| 20260507101835 | 18 | 120 | 4.8 | 0.0 | 0.00 | 0.00 | 0.00 | 64 | 1015.0 |
| 20260507100336 | 18 | 120 | 4.8 | 0.0 | 0.00 | 0.00 | 0.00 | 64 | 1015.0 |
| 20260507094835 | 18 | 70 | 9.7 | 0.0 | 0.00 | 0.00 | 0.00 | 73 | 1015.0 |
| 20260507093336 | 18 | 70 | 9.7 | 0.0 | 0.00 | 0.00 | 0.00 | 73 | 1015.0 |
| 20260507091837 | 18 | 1.6 | 0.0 | 0.00 | 0.00 | 0.00 | 68 | 1015.0 | |
| 20260507090335 | 18 | 1.6 | 0.0 | 0.00 | 0.00 | 0.00 | 68 | 1015.0 | |
| 20260507084835 | 20 | 3.2 | 0.0 | 0.00 | 0.00 | 0.00 | 56 | 1014.0 | |
| 20260507083336 | 20 | 3.2 | 0.0 | 0.00 | 0.00 | 0.00 | 56 | 1014.0 | |
| 20260507081835 | 20 | 3.2 | 0.0 | 0.00 | 0.00 | 0.00 | 53 | 1014.0 | |
| 20260507080336 | 20 | 3.2 | 0.0 | 0.00 | 0.00 | 0.00 | 53 | 1014.0 | |
| 20260507074836 | 20 | 3.2 | 0.0 | 0.00 | 0.00 | 0.00 | 53 | 1014.0 | |
| 20260507073335 | 20 | 3.2 | 0.0 | 0.00 | 0.00 | 0.00 | 53 | 1014.0 | |
| 20260507071836 | 20 | 150 | 4.8 | 0.0 | 0.00 | 0.00 | 0.00 | 53 | 1014.0 |
| 20260507070335 | 20 | 150 | 4.8 | 0.0 | 0.00 | 0.00 | 0.00 | 53 | 1014.0 |
| 20260507064835 | 18 | 3.2 | 0.0 | 0.00 | 0.00 | 0.00 | 56 | 1014.0 | |
| 20260507063335 | 18 | 3.2 | 0.0 | 0.00 | 0.00 | 0.00 | 56 | 1014.0 | |
| 20260507061845 | 17 | 3.2 | 0.0 | 0.00 | 0.00 | 0.00 | 60 | 1013.0 | |
| 20260507060335 | 17 | 3.2 | 0.0 | 0.00 | 0.00 | 0.00 | 60 | 1013.0 | |
| 20260507054835 | 17 | 70 | 4.8 | 0.0 | 0.00 | 0.00 | 0.00 | 60 | 1013.0 |
| 20260507053343 | 17 | 70 | 4.8 | 0.0 | 0.00 | 0.00 | 0.00 | 60 | 1013.0 |
| 20260507051836 | 15 | 290 | 4.8 | 0.0 | 0.00 | 0.00 | 0.00 | 72 | 1013.0 |
| 20260507050335 | 15 | 290 | 4.8 | 0.0 | 0.00 | 0.00 | 0.00 | 72 | 1013.0 |
| 20260507044832 | 15 | 4.8 | 0.0 | 0.00 | 0.00 | 0.00 | 72 | 1013.0 | |
| 20260507043335 | 15 | 4.8 | 0.0 | 0.00 | 0.00 | 0.00 | 72 | 1013.0 | |
| 20260507041835 | 13 | 90 | 8.0 | 0.0 | 0.00 | 0.00 | 0.00 | 72 | 1013.0 |
| 20260507040335 | 13 | 90 | 8.0 | 0.0 | 0.00 | 0.00 | 0.00 | 72 | 1013.0 |
| 20260507034832 | 12 | 90 | 9.7 | 0.0 | 0.00 | 0.00 | 0.00 | 82 | 1013.0 |
| 20260507033335 | 12 | 90 | 9.7 | 0.0 | 0.00 | 0.00 | 0.00 | 82 | 1013.0 |
| 20260507031835 | 12 | 80 | 4.8 | 0.0 | 0.00 | 0.00 | 0.00 | 82 | 1013.0 |
| 20260507030335 | 12 | 80 | 4.8 | 0.0 | 0.00 | 0.00 | 0.00 | 82 | 1013.0 |
| 20260507024832 | 12 | 90 | 8.0 | 0.0 | 0.00 | 0.00 | 0.00 | 82 | 1013.0 |